Regional Weather Roundup
Issued by NWS Newport/Morehead, NC

Current Version | Previous Version | Text Only | Print | Product List | Glossary Off
Versions: 1 2 3 4 5 6 7 8 9 10 11 12 13 14 15 16 17 18 19 20 21 22 23 24 25 26 27 28 29 30 31 32 33 34 35 36 37 38 39 40 41 42 43 44 45 46 47 48 49 50
000 ASUS42 KMHX 301912 RWRMHX WEATHER ROUNDUP FOR EASTERN NORTH CAROLINA NATIONAL WEATHER SERVICE NEWPORT/MOREHEAD CITY NC 300 PM EDT MON MAR 30 2015 NOTE: "FAIR" INDICATES FEW OR NO CLOUDS BELOW 12,000 FEET WITH NO SIGNIFICANT WEATHER AND/OR OBSTRUCTIONS TO VISIBILITY NCZ015>017-031-032-045>047-102-103-302000- NORTH COAST CITY SKY/WX TMP DP RH WIND PRES REMARKS EDENTON CLOUDY 47 44 88 SW13G20 29.98F ELIZABETH CITY CLOUDY 48 45 89 SW17G23 29.97F KITTY HAWK DRIZZLE 46 44 93 SW8G21 29.97F MANTEO CLOUDY 47 45 93 SW16G22 30.00F $$ NCZ045>047-081-094-103-104-302000- CENTRAL COAST CITY SKY/WX TMP DP RH WIND PRES REMARKS FRISCO CLOUDY 50 45 83 W13G25 30.02F SWANQUARTER N/A 50 N/A N/A SW9 29.97F $$ NCZ095-097-098-100-101-302000- SOUTHERN COAST CITY SKY/WX TMP DP RH WIND PRES REMARKS BEAUFORT CLOUDY 56 49 77 SW15 30.02F CEDAR ISLAND N/A 54 N/A N/A SW8G14 30.06F JACKSONVILLE CLOUDY 59 43 55 W8 30.01F PINEY ISLAND CLOUDY N/A N/A N/A W12 30.02F WILMINGTON CLOUDY 64 44 48 W20 30.02F $$ NCZ011>013-027>030-043-044-078>080-089-090>093-098-302000- COASTAL PLAIN CITY SKY/WX TMP DP RH WIND PRES REMARKS AHOSKIE MOSUNNY 52 45 77 SW3 29.96F CLINTON PTSUNNY 58 48 70 SW9 30.02F ELIZABETHTOWN PTSUNNY 61 46 58 W14 30.02F GOLDSBORO MOSUNNY 55 46 71 W15 29.97F GREENVILLE CLOUDY 50 46 87 W7 30.01F HAVELOCK CLOUDY 54 45 71 SW7 30.03F KENANSVILLE CLOUDY 55 45 70 SW16 30.03F KINSTON CLOUDY 54 48 82 SW10G18 30.01F NEW BERN CLOUDY 53 46 77 SW8 30.03F RICHLANDS CLOUDY 57 45 62 SW16 30.01F ROCKY MOUNT MOSUNNY 55 46 71 SW12 29.98F WASHINGTON CLOUDY 48 45 88 SW10 30.00F WHITEVILLE CLOUDY 63 44 51 W9 30.03F $$ AMZ130-135-150-152-154-156-158-170-250-252-270-ANZ085-086-088-633-658-670-302000- MARINE OBSERVATIONS STATION/POSITION TIME TEMP WIND PRES WAVE SWELL AIR SEA DIR/SP/G HT/PER HT/PER (UTC) (F) (DEG/KT/KT) (MB) (FT/S) (FT/S) CHESAPEAKE LIGHT 1800 44 220/ 22/ 24 1014.0 64 E VA BEACH 1850 47 49 230/ 23/ 29 1013.4 5/ 5 2/11 DUCK 1800 46 42 240/ 21/ 27 1015.0 2 E DUCK 1811 42 N/A 2/10 2/11 10 NE DUCK NOT AVBL OREGON INLET 1800 47 44 240/ 16/ 22 1016.6 HATTERAS CG 1800 53 55 250/ 12/ 20 1017.3 CAPE LOOKOUT 1900 56 240/ 11/ 15 1016.4 BEAUFORT LAB 1800 54 52 240/ 5/ 15 1016.5 27 SE WRIGHTSVLE 1800 58 64 240/ 27/ 33 1019.2 5 SE WRIGHTSVLE NOT AVBL 225 S CAPE HAT 1850 61 68 240/ 17/ 23 1021.9 5/10 3/10 41 SE CHARLESTON 1850 64 68 230/ 25/ 29 1017.9 7/ 6 2/14 $$

USA.gov is the U.S. government's official web portal to all federal, state and local government web resources and services.